Watford City, ND

9:36 PM CDT on March 24, 2017 (GMT -0500)
Watford City

Weather History for KS25 - October, 2013

Change the Weather History Date:

Sunday, October 6, 2013

  Actual Average (KISN) Record (KISN)
Temperature  
Mean Temperature 46 °F -  
Max Temperature 69 °F 60 °F 86 °F (1980)
Min Temperature 24 °F 31 °F 12 °F (2005)
Degree Days  
Heating Degree Days 18    
Moisture  
Dew Point 31 °F    
Average Humidity 64    
Maximum Humidity 93    
Minimum Humidity 28    
Precipitation  
Precipitation 0.00 in - - ()
Sea Level Pressure  
Sea Level Pressure 29.98 in    
Wind  
Wind Speed 4 mph (WSW)    
Max Wind Speed 17 mph    
Max Gust Speed 23 mph    
Visibility 10 miles    
Events      
Averages and records for this station are not official NWS values.
T = Trace of Precipitation, MM = Missing Value Source: NWS Daily Summary

Daily Weather History Graph

Daily Weather History Graph

Search for Another Location

Airport or City:

Trip Planner

Search our weather history database for the weather conditions in past years. The results will help you decide how hot, cold, wet, or windy it might be!

Date:

Astronomy

Oct. 06, 2013 Rise Set
Actual Time 7:59 AM CDT 7:21 PM CDT
Civil Twilight 7:28 AM CDT 7:52 PM CDT
Nautical Twilight 6:52 AM CDT 8:28 PM CDT
Astronomical Twilight 6:16 AM CDT 9:04 PM CDT
Moon 9:56 AM CDT (10/6) 8:11 PM CDT (10/6)
Length of Visible Light 12h 23m
Length of Day
11h 22m
Waxing Crescent, 3% of the Moon is Illuminated
Oct 6
Waxing Crescent
Oct 11
First Quarter
Oct 18
Full
Oct 26
Last Quarter
Nov 3
New

Hourly Weather History & Observations

Time (CDT) Temp. Windchill Dew Point Humidity Pressure Visibility Wind Dir Wind Speed Gust Speed Precip Events Conditions
12:15 AM 26.6 °F - 23.0 °F 86% 30.03 in 10.0 mi Calm Calm - N/A   Clear
12:35 AM 26.6 °F - 24.8 °F 93% 30.02 in 10.0 mi Calm Calm - N/A   Clear
12:55 AM 26.6 °F - 23.0 °F 86% 30.03 in 10.0 mi Calm Calm - N/A   Clear
1:15 AM 28.4 °F 23.3 °F 24.8 °F 86% 30.03 in 10.0 mi SSW 4.6 mph - N/A   Clear
1:35 AM 28.4 °F - 24.8 °F 86% 30.02 in 10.0 mi Calm Calm - N/A   Clear
1:55 AM 26.6 °F - 23.0 °F 86% 30.03 in 10.0 mi Calm Calm - N/A   Clear
2:15 AM 28.4 °F - 24.8 °F 86% 30.03 in 10.0 mi Calm Calm - N/A   Clear
2:35 AM 24.8 °F - 23.0 °F 93% 30.03 in 10.0 mi Calm Calm - N/A   Clear
2:55 AM 26.6 °F - 24.8 °F 93% 30.03 in 10.0 mi Calm Calm - N/A   Clear
3:15 AM 26.6 °F - 24.8 °F 93% 30.02 in 10.0 mi Calm Calm - N/A   Clear
3:35 AM 24.8 °F - 21.2 °F 86% 30.02 in 10.0 mi Calm Calm - N/A   Clear
3:55 AM 24.8 °F - 23.0 °F 93% 30.01 in 10.0 mi Calm Calm - N/A   Clear
4:15 AM 26.6 °F - 23.0 °F 86% 30.01 in 10.0 mi Calm Calm - N/A   Clear
4:35 AM 26.6 °F 22.6 °F 23.0 °F 86% 30.01 in 10.0 mi SW 3.5 mph - N/A   Clear
4:55 AM 26.6 °F 21.2 °F 23.0 °F 86% 30.01 in 10.0 mi SSW 4.6 mph - N/A   Clear
5:15 AM 26.6 °F 20.0 °F 24.8 °F 93% 30.01 in 10.0 mi SW 5.8 mph - N/A   Clear
5:35 AM 26.6 °F 21.2 °F 24.8 °F 93% 30.01 in 10.0 mi SSW 4.6 mph - N/A   Clear
5:55 AM 26.6 °F 20.0 °F 24.8 °F 93% 30.01 in 10.0 mi SSW 5.8 mph - N/A   Clear
6:15 AM 28.4 °F 22.2 °F 24.8 °F 86% 30.01 in 10.0 mi SSW 5.8 mph - N/A   Clear
6:35 AM 28.4 °F 21.2 °F 24.8 °F 86% 30.02 in 10.0 mi SW 6.9 mph - N/A   Clear
6:55 AM 28.4 °F 21.2 °F 24.8 °F 86% 30.02 in 10.0 mi SW 6.9 mph - N/A   Clear
7:15 AM 28.4 °F 19.7 °F 24.8 °F 86% 30.02 in 10.0 mi SSW 9.2 mph - N/A   Clear
7:35 AM 28.4 °F 19.7 °F 24.8 °F 86% 30.02 in 10.0 mi SW 9.2 mph - N/A   Clear
7:55 AM 28.4 °F 19.7 °F 24.8 °F 86% 30.02 in 10.0 mi SW 9.2 mph - N/A   Clear
8:15 AM 28.4 °F 22.2 °F 24.8 °F 86% 30.02 in 10.0 mi SW 5.8 mph - N/A   Clear
8:35 AM 30.2 °F 26.7 °F 24.8 °F 80% 30.03 in 10.0 mi WSW 3.5 mph - N/A   Clear
8:55 AM 32.0 °F 28.7 °F 26.6 °F 80% 30.04 in 10.0 mi SSW 3.5 mph - N/A   Clear
9:15 AM 33.8 °F 29.6 °F 28.4 °F 81% 30.04 in 10.0 mi SSW 4.6 mph - N/A   Clear
9:35 AM 37.4 °F 33.8 °F 28.4 °F 70% 30.03 in 10.0 mi SW 4.6 mph - N/A   Clear
9:55 AM 39.2 °F 35.0 °F 30.2 °F 70% 30.03 in 10.0 mi SW 5.8 mph - N/A   Clear
10:15 AM 42.8 °F 39.3 °F 32.0 °F 66% 30.03 in 10.0 mi SW 5.8 mph - N/A   Clear
10:35 AM 44.6 °F 40.7 °F 32.0 °F 61% 30.02 in 10.0 mi SW 6.9 mph - N/A   Clear
10:55 AM 48.2 °F - 32.0 °F 54% 30.02 in 10.0 mi SW 6.9 mph - N/A   Clear
11:15 AM 50.0 °F - 32.0 °F 50% 30.02 in 10.0 mi SW 9.2 mph - N/A   Clear
11:35 AM 53.6 °F - 32.0 °F 44% 30.02 in 10.0 mi SW 9.2 mph - N/A   Clear
11:55 AM 55.4 °F - 33.8 °F 44% 30.01 in 10.0 mi SW 10.4 mph - N/A   Clear
12:15 PM 59.0 °F - 33.8 °F 39% 30.00 in 10.0 mi SW 10.4 mph - N/A   Clear
12:35 PM 59.0 °F - 35.6 °F 42% 30.00 in 10.0 mi SW 11.5 mph - N/A   Clear
12:55 PM 62.6 °F - 35.6 °F 37% 30.00 in 10.0 mi WSW 9.2 mph - N/A   Clear
1:15 PM 64.4 °F - 33.8 °F 32% 29.99 in 10.0 mi WNW 10.4 mph 16.1 mph N/A   Clear
1:35 PM 66.2 °F - 33.8 °F 30% 29.98 in 10.0 mi West 13.8 mph - N/A   Clear
1:55 PM 66.2 °F - 35.6 °F 32% 29.98 in 10.0 mi West 10.4 mph 16.1 mph N/A   Clear
2:15 PM 66.2 °F - 35.6 °F 32% 29.97 in 10.0 mi West 13.8 mph 19.6 mph N/A   Clear
2:35 PM 68.0 °F - 35.6 °F 30% 29.96 in 10.0 mi West 17.3 mph 21.9 mph N/A   Clear
2:55 PM 68.0 °F - 35.6 °F 30% 29.96 in 10.0 mi West 12.7 mph 18.4 mph N/A   Clear
3:15 PM 68.0 °F - 35.6 °F 30% 29.95 in 10.0 mi West 13.8 mph 23.0 mph N/A   Clear
3:35 PM 68.0 °F - 37.4 °F 33% 29.94 in 10.0 mi West 10.4 mph - N/A   Clear
3:55 PM 68.0 °F - 37.4 °F 33% 29.94 in 10.0 mi West 16.1 mph 19.6 mph N/A   Clear
4:15 PM 69.8 °F - 37.4 °F 31% 29.93 in 10.0 mi West 16.1 mph 19.6 mph N/A   Clear
4:35 PM 69.8 °F - 37.4 °F 31% 29.93 in 10.0 mi WNW 15.0 mph 20.7 mph N/A   Clear
4:55 PM 69.8 °F - 35.6 °F 28% 29.93 in 10.0 mi WNW 15.0 mph 21.9 mph N/A   Clear
5:15 PM 69.8 °F - 35.6 °F 28% 29.92 in 10.0 mi WNW 15.0 mph 20.7 mph N/A   Clear
5:35 PM 68.0 °F - 35.6 °F 30% 29.92 in 10.0 mi West 15.0 mph 20.7 mph N/A   Clear
5:55 PM 68.0 °F - 35.6 °F 30% 29.92 in 10.0 mi WNW 12.7 mph 18.4 mph N/A   Clear
6:15 PM 68.0 °F - 35.6 °F 30% 29.92 in 10.0 mi WNW 10.4 mph - N/A   Clear
6:35 PM 66.2 °F - 35.6 °F 32% 29.92 in 10.0 mi WNW 6.9 mph - N/A   Clear
6:55 PM 64.4 °F - 35.6 °F 34% 29.92 in 10.0 mi WNW 5.8 mph - N/A   Clear
7:15 PM 62.6 °F - 37.4 °F 39% 29.92 in 10.0 mi West 8.1 mph - N/A   Clear
7:35 PM 59.0 °F - 37.4 °F 45% 29.92 in 10.0 mi West 6.9 mph - N/A   Clear
7:55 PM 55.4 °F - 37.4 °F 51% 29.92 in 10.0 mi West 5.8 mph - N/A   Clear
8:15 PM 53.6 °F - 37.4 °F 54% 29.93 in 10.0 mi Calm Calm - N/A   Clear
8:35 PM 50.0 °F - 37.4 °F 62% 29.94 in 10.0 mi North 6.9 mph - N/A   Clear
8:55 PM 50.0 °F - 37.4 °F 62% 29.94 in 10.0 mi Calm Calm - N/A   Clear
9:15 PM 46.4 °F - 35.6 °F 66% 29.94 in 10.0 mi Calm Calm - N/A   Clear
9:35 PM 44.6 °F - 35.6 °F 71% 29.94 in 10.0 mi Calm Calm - N/A   Clear
9:55 PM 44.6 °F - 35.6 °F 71% 29.94 in 10.0 mi Calm Calm - N/A   Clear
10:15 PM 44.6 °F - 35.6 °F 71% 29.95 in 10.0 mi Calm Calm - N/A   Clear
10:35 PM 42.8 °F - 35.6 °F 76% 29.95 in 10.0 mi Calm Calm - N/A   Clear
10:55 PM 41.0 °F 39.0 °F 35.6 °F 81% 29.95 in 10.0 mi SW 3.5 mph - N/A   Clear
11:15 PM 39.2 °F - 35.6 °F 87% 29.95 in 10.0 mi Calm Calm - N/A   Clear
11:35 PM 39.2 °F - 35.6 °F 87% 29.94 in 10.0 mi Calm Calm - N/A   Clear
11:55 PM 39.2 °F - 35.6 °F 87% 29.95 in 10.0 mi Calm Calm - N/A   Clear